Theta_e
314 314 315 315 314 316 320 321 322 325 328 331 334 334 336 338 338 338 338 338 339 340 340 341 342 340 338 340 340 339 339 340 340 337 335 337 336 335 333 331 336 340 337 333 325 324 330 329 325 322 318 316 315 314 314 314 314 316 316 315 315 314 315 313 318 330 334 331 332 334 335 336 337 337 338 339 339 339 338 334 333 333 333 333 333
315 314 315 315 315 315 319 321 321 326 329 330 333 335 336 336 332 332 335 336 338 339 339 338 340 340 338 338 339 338 339 340 340 339 336 338 338 334 332 330 336 340 337 333 326 321 323 324 322 318 315 315 314 313 313 314 315 315 315 315 315 314 315 314 317 328 332 331 333 337 338 338 337 338 339 340 339 339 339 336 334 334 330 330 332
315 315 314 315 315 315 318 321 322 325 327 326 328 332 335 334 328 326 328 334 339 338 339 338 337 340 338 338 339 337 338 340 340 340 338 339 338 336 335 330 334 340 337 330 325 321 319 319 319 315 315 314 313 313 313 315 317 316 315 314 315 316 317 320 323 326 330 335 337 338 338 338 339 340 340 339 338 338 338 336 335 335 329 327 330
315 315 315 315 316 315 316 318 319 321 322 322 323 328 333 333 328 323 319 329 339 339 338 338 338 340 339 339 341 339 339 339 339 340 339 339 338 338 338 333 334 340 337 328 322 320 317 316 316 315 315 314 314 314 313 315 317 315 315 314 314 317 321 326 329 329 329 333 337 338 339 338 339 340 339 338 337 336 337 337 336 336 332 329 330
315 316 315 315 316 316 316 316 317 317 318 321 323 327 331 332 329 324 315 320 334 340 339 339 340 340 339 340 341 340 340 339 339 340 339 338 337 338 338 336 336 338 336 330 322 319 317 316 315 314 315 315 314 315 314 314 315 314 315 315 314 318 328 335 335 335 334 332 334 337 339 339 339 339 338 337 338 337 337 338 338 337 335 333 331
315 315 315 315 315 316 317 317 317 317 318 321 325 328 331 332 330 325 316 313 325 337 340 339 341 341 340 340 339 339 340 340 339 339 338 336 334 337 339 338 336 337 336 331 323 319 317 315 315 315 315 315 314 314 315 314 315 315 315 315 314 317 330 340 340 339 339 337 335 334 336 337 338 337 337 336 339 339 338 339 339 337 338 336 330
316 315 315 316 315 315 316 317 317 317 317 320 325 328 331 332 331 325 317 311 318 332 339 340 341 341 341 340 337 336 339 340 340 339 337 334 331 335 340 338 336 339 337 330 322 319 317 315 317 319 318 316 315 314 315 315 315 315 315 317 320 320 326 335 340 342 341 339 338 336 335 336 336 336 336 336 338 339 339 340 339 338 339 337 332
316 316 315 315 316 315 316 316 317 317 317 319 323 326 329 332 332 326 319 314 315 328 338 339 340 341 340 339 336 334 335 339 340 339 338 337 334 335 339 338 337 339 337 329 321 319 317 314 319 324 321 316 315 315 314 316 315 318 326 331 332 333 334 333 335 340 342 341 339 338 338 339 338 337 335 334 336 339 340 340 339 339 339 339 337
316 316 316 316 315 315 316 316 317 317 317 319 322 324 326 330 332 328 323 319 317 326 336 338 339 340 338 337 336 335 334 336 338 340 340 339 338 338 339 338 337 338 335 327 319 319 317 314 322 331 328 318 314 314 314 316 315 322 335 341 340 340 341 338 332 332 338 341 340 339 339 339 339 338 336 336 337 339 339 339 340 340 340 340 339
316 316 316 316 316 315 316 315 316 318 317 318 321 323 325 329 331 331 328 324 321 324 332 337 338 339 338 336 335 334 335 334 335 338 340 339 339 339 339 339 339 337 331 323 319 318 317 316 323 332 332 323 316 314 316 317 316 322 335 340 341 341 341 337 332 328 333 339 341 340 340 340 340 339 338 338 339 340 339 339 340 340 339 339 339
316 316 316 316 315 315 316 316 316 317 317 317 319 322 325 328 330 332 331 329 325 322 325 334 338 339 339 337 335 333 334 334 334 336 339 339 339 340 339 338 339 337 329 321 319 317 316 317 321 327 328 323 318 316 317 318 317 323 331 335 335 336 333 331 330 329 332 337 339 340 339 340 340 339 339 339 340 341 341 341 341 340 339 338 338
316 316 316 316 316 315 315 316 315 316 317 317 318 320 324 328 330 331 333 332 329 323 321 331 339 339 339 338 335 334 333 333 334 336 339 340 340 340 339 338 338 338 333 322 318 318 317 318 320 322 321 319 318 317 318 318 318 321 326 328 327 326 325 327 330 331 333 336 337 338 338 339 340 339 338 339 339 340 341 341 341 340 339 338 338
316 316 316 316 316 316 315 316 316 316 317 318 318 319 322 328 330 331 333 333 330 325 322 331 338 339 338 337 336 335 334 333 334 338 339 340 340 339 339 338 337 337 334 324 318 319 317 317 319 319 317 317 319 318 318 319 318 319 322 325 326 323 323 326 330 332 335 337 337 337 338 338 338 338 338 339 339 340 340 341 341 340 338 338 338
316 316 316 316 316 317 315 315 316 316 317 318 319 320 321 326 330 330 332 334 332 328 326 332 338 340 339 338 337 336 335 334 334 337 339 339 340 339 338 337 335 332 328 321 319 319 317 317 317 318 318 318 319 319 319 318 318 320 323 325 325 323 326 330 332 334 336 337 337 337 338 338 337 337 338 339 339 340 340 341 341 339 338 337 336
316 316 316 316 316 317 316 315 316 316 317 317 318 321 321 323 329 330 331 335 334 331 330 330 335 339 339 337 337 336 335 335 336 338 339 339 340 339 336 334 331 327 322 319 319 318 318 318 317 318 318 318 318 319 320 319 318 320 324 328 326 326 332 336 336 336 336 335 335 335 337 338 338 339 340 340 340 339 340 341 340 339 338 337 336
315 315 316 316 315 316 316 315 316 316 317 317 317 320 321 322 326 329 331 334 334 333 330 327 330 337 339 337 337 336 334 336 338 339 339 339 340 339 336 331 327 325 321 319 319 319 319 318 318 318 318 318 318 319 320 319 319 320 324 330 331 331 336 338 338 336 334 333 332 331 333 335 338 340 339 339 339 339 339 340 339 337 336 337 337
316 315 315 316 315 315 315 315 316 316 317 318 317 318 319 320 325 329 331 333 334 333 330 326 328 334 338 338 338 337 335 335 337 339 339 339 339 339 337 332 327 324 321 319 318 319 319 318 319 319 318 319 320 320 319 319 319 320 323 330 333 333 336 339 339 337 335 332 330 329 330 332 336 338 338 339 339 339 340 340 338 337 336 336 337
317 316 315 315 315 315 315 315 316 316 317 318 318 318 318 319 324 328 330 332 334 333 331 327 326 331 336 338 337 337 336 334 337 340 340 340 339 339 338 335 331 327 322 320 319 319 319 319 319 319 318 319 321 321 320 319 321 320 322 330 335 335 337 340 339 338 337 334 331 329 328 331 335 335 336 338 339 339 340 340 339 337 336 336 335
318 317 316 315 315 315 314 315 316 317 317 317 318 319 320 321 325 329 330 332 333 332 331 328 326 330 336 337 337 337 336 335 338 340 341 341 340 340 339 336 335 334 327 320 319 321 321 320 320 319 319 320 320 321 321 321 322 321 321 327 334 336 337 340 339 337 337 336 333 330 329 331 333 334 336 338 339 340 340 339 339 338 337 336 334
318 318 317 316 315 315 314 315 316 317 317 318 318 319 320 323 326 328 330 331 332 331 331 330 327 329 335 337 337 337 337 337 338 339 340 342 342 341 341 339 339 339 333 323 319 322 322 321 321 320 319 319 319 321 323 323 322 322 321 324 332 336 337 339 338 337 338 337 333 331 330 331 332 335 339 340 340 340 340 339 338 337 337 336 334
317 317 318 317 316 314 314 315 316 316 317 318 319 319 320 322 325 327 329 329 330 332 331 329 326 327 334 337 338 337 337 337 338 337 339 342 342 340 340 341 341 341 337 328 321 321 323 322 322 321 320 320 319 322 325 324 322 322 322 323 331 337 338 338 338 338 339 337 332 331 331 331 335 339 341 341 341 341 340 339 337 336 336 334 333
316 317 318 318 317 315 314 315 315 316 317 317 318 318 320 322 324 326 328 329 330 331 330 326 323 328 335 338 338 338 337 338 338 337 337 340 342 340 337 337 340 341 339 332 325 323 323 322 322 321 321 320 320 322 325 325 323 323 324 327 332 336 337 339 338 339 340 337 333 331 332 334 338 341 342 341 341 341 340 339 336 335 335 333 332
315 317 317 317 316 316 315 315 315 315 316 318 318 320 322 322 322 326 330 330 329 330 329 326 324 330 336 337 338 338 338 338 339 338 337 338 340 340 337 334 336 340 340 336 332 328 324 322 322 322 321 321 321 322 324 325 324 325 328 331 333 335 337 339 338 338 340 339 335 332 333 336 339 340 341 341 341 341 340 338 336 336 336 334 332
315 316 317 317 317 316 314 315 316 317 318 319 319 321 324 324 325 328 331 330 328 328 330 330 329 332 336 338 339 339 340 339 339 338 338 338 337 338 338 335 334 336 339 340 338 333 329 325 322 322 322 321 321 323 326 327 327 328 330 332 334 335 337 339 338 338 339 339 338 334 333 336 338 339 341 342 341 341 340 338 337 336 335 333 331
315 316 318 318 318 317 314 315 317 317 318 318 317 319 323 326 327 329 330 331 332 331 331 330 331 335 338 338 339 339 340 339 338 337 336 336 336 336 336 336 336 333 334 339 340 337 334 329 322 322 322 321 322 326 328 330 331 332 332 333 334 335 337 338 338 338 338 339 339 337 334 334 336 338 341 342 341 341 340 338 337 336 334 333 331
315 316 317 318 318 318 316 316 317 317 316 316 316 319 321 323 326 326 327 330 334 337 336 332 333 338 339 338 339 339 339 339 338 337 336 335 335 335 335 335 335 333 331 336 341 341 337 330 323 322 323 323 327 331 332 333 334 334 334 334 336 337 338 339 338 338 339 339 339 339 338 336 334 336 340 341 341 341 340 338 336 335 334 333 332
315 316 317 318 319 318 317 317 317 317 316 316 316 320 321 322 324 325 327 328 331 337 340 337 337 339 339 339 338 339 339 339 338 338 337 336 335 334 335 334 333 332 330 333 339 341 338 331 324 325 327 330 334 336 338 337 335 335 335 335 337 340 340 340 338 337 338 339 339 339 340 340 338 336 338 341 341 341 340 338 337 335 333 332 332
315 316 317 318 319 319 318 317 317 317 317 316 317 320 321 321 324 325 326 329 330 333 337 338 339 340 339 338 337 337 338 338 338 338 338 338 336 336 337 335 332 332 331 331 337 341 339 333 330 331 334 337 339 340 341 339 337 337 336 336 339 341 342 341 339 338 338 339 339 339 340 341 340 338 339 340 341 340 340 338 337 335 332 331 331
315 316 317 318 319 319 318 318 317 317 317 317 317 319 319 321 324 324 325 328 328 329 330 332 336 339 337 336 336 337 337 338 337 338 338 338 338 338 338 337 335 334 333 334 339 342 341 338 337 337 339 341 342 342 341 339 338 338 338 338 341 342 342 341 339 339 339 339 339 340 339 339 340 340 340 340 340 340 339 338 336 334 331 330 329
316 316 317 318 318 319 319 320 318 316 317 317 316 317 318 320 323 324 326 328 327 328 331 333 335 338 337 336 336 336 337 338 338 338 338 338 339 339 340 340 339 338 338 339 341 342 343 343 342 341 341 343 343 342 340 338 338 339 339 341 342 343 342 340 340 339 339 339 339 340 339 339 340 340 340 340 340 339 339 338 336 334 332 330 328
317 317 317 318 318 319 319 320 318 316 316 316 316 317 317 318 322 325 327 329 327 327 331 335 336 337 336 335 334 334 336 337 337 337 338 338 338 339 340 341 341 341 342 342 341 341 341 342 343 343 343 344 343 341 340 340 340 341 342 343 343 343 342 340 340 339 339 339 340 340 340 340 340 340 340 340 339 339 338 338 336 334 332 331 329
316 317 317 317 318 318 319 320 319 317 316 317 316 316 317 317 321 325 327 329 328 326 327 330 334 337 337 336 334 334 335 335 335 336 336 336 337 338 339 341 342 342 342 341 341 341 339 338 342 344 344 344 343 341 341 342 342 342 343 343 343 342 342 341 340 339 339 339 340 340 340 340 340 340 340 340 339 339 339 338 337 334 331 331 329
315 317 317 317 317 317 318 319 320 318 317 317 316 316 317 317 320 324 326 326 327 330 330 330 333 336 337 337 336 336 337 336 334 333 334 335 337 338 339 340 341 341 341 340 341 341 337 336 341 344 344 344 343 343 342 342 342 342 342 343 342 342 342 341 340 339 339 339 340 340 340 340 340 340 339 339 339 339 339 338 336 333 330 330 329
315 317 318 318 317 317 317 318 319 319 317 317 317 316 316 317 319 323 325 324 327 331 333 332 334 336 336 336 335 335 337 337 333 332 333 332 333 336 338 339 340 340 340 340 341 340 335 336 341 343 343 344 343 342 342 341 342 342 342 343 342 342 340 339 339 338 339 340 340 340 340 340 339 339 339 339 339 339 339 337 335 332 329 329 329
317 318 319 319 318 318 317 316 319 319 318 317 317 316 316 317 318 320 322 324 327 330 332 333 333 333 334 336 335 334 335 335 333 331 331 331 332 334 336 337 338 338 338 338 338 336 334 338 342 343 343 344 343 342 341 341 341 342 342 342 342 341 340 339 339 339 339 340 341 340 340 339 339 338 338 338 339 339 338 336 333 331 329 328 328
318 319 319 319 319 318 316 316 318 319 318 317 317 317 316 316 318 320 320 323 325 327 329 330 329 329 333 336 336 334 333 333 331 330 329 331 332 332 333 333 333 334 335 334 334 335 337 340 343 343 343 343 342 342 342 341 340 341 342 341 341 341 339 339 340 340 339 340 340 340 340 340 339 339 338 338 338 338 337 334 332 331 329 327 326
319 320 320 320 319 318 316 316 317 318 318 317 316 317 316 316 318 320 320 321 323 324 326 327 327 329 333 336 336 334 333 332 332 331 330 331 331 330 329 331 332 333 333 331 333 337 340 342 343 343 344 343 342 341 341 341 341 341 341 340 340 340 339 339 340 341 340 340 340 339 339 339 339 339 338 337 338 337 335 333 332 330 328 326 325
320 321 320 320 319 318 317 316 317 318 318 317 316 316 316 317 319 319 319 320 323 323 324 325 325 327 331 334 335 336 334 332 332 332 332 332 332 331 328 328 330 330 329 332 336 338 340 342 343 343 343 343 342 340 340 341 342 341 340 338 338 338 338 338 340 341 340 340 339 339 338 338 338 338 338 337 336 335 334 332 331 329 327 326 324
319 320 320 320 320 318 317 317 318 319 318 317 317 317 317 317 318 319 318 321 323 323 323 324 325 325 328 331 334 334 332 329 329 331 332 332 332 331 328 328 329 327 328 334 338 339 341 343 344 343 343 342 341 340 340 341 341 341 340 337 335 336 337 337 338 339 339 338 338 337 336 336 337 338 338 336 334 333 333 331 330 328 326 325 324
317 318 319 319 319 318 318 318 318 318 318 317 317 318 318 317 318 319 319 320 323 322 321 322 323 324 326 331 334 334 331 328 328 329 331 332 332 331 329 329 329 326 330 337 340 340 341 341 342 343 343 342 341 341 341 341 341 341 340 336 333 335 336 336 336 338 339 338 337 336 335 336 338 338 338 336 334 333 332 330 329 327 326 325 324
316 317 318 318 318 319 319 319 318 318 317 318 318 318 318 318 319 320 320 321 322 322 322 322 322 323 326 330 332 332 331 328 327 328 331 334 333 329 329 330 328 325 331 338 339 337 337 337 338 341 343 342 341 341 341 341 341 341 340 337 334 333 336 337 337 337 338 338 337 336 336 337 339 338 338 336 334 332 331 330 328 327 326 325 324
315 316 316 317 317 318 319 319 319 319 318 318 318 319 320 320 320 320 319 320 321 321 321 322 322 323 325 326 328 329 328 329 330 331 332 334 332 329 328 330 330 330 335 339 338 335 336 337 338 339 342 343 342 341 341 341 341 342 341 337 334 334 336 338 337 337 338 339 338 337 338 338 338 338 337 336 334 331 330 330 328 327 326 325 325
316 316 317 317 316 317 318 319 319 320 320 320 320 320 321 321 320 320 319 319 320 320 320 321 323 324 325 327 329 329 328 330 333 333 333 333 332 330 330 332 334 335 338 339 337 336 338 339 338 338 341 343 342 341 342 341 341 342 341 337 335 335 336 338 338 338 339 339 338 338 338 338 338 338 337 336 334 332 330 329 328 327 326 325 324
316 317 318 318 317 317 317 318 318 319 319 320 320 321 321 321 321 322 321 319 320 320 321 322 324 325 325 327 330 330 328 330 332 333 334 335 333 331 331 333 335 337 337 335 335 335 336 338 340 340 341 342 342 342 342 342 342 342 340 337 335 336 336 337 338 339 339 339 338 339 338 337 337 337 336 335 334 332 330 329 327 326 326 325 324
315 318 319 319 318 318 318 317 316 317 317 318 319 320 320 321 322 323 323 322 321 321 322 323 325 326 326 327 331 331 329 329 331 332 333 332 331 331 330 330 333 337 336 334 335 334 334 337 339 339 340 340 342 343 343 342 343 342 340 337 336 336 337 336 336 338 338 338 338 338 337 336 335 334 335 335 333 331 330 328 326 326 326 324 323
314 317 319 320 319 319 319 318 316 316 317 318 319 319 319 320 321 322 323 324 324 324 324 324 325 326 327 328 331 330 328 329 333 334 333 330 327 328 329 330 333 335 334 332 333 334 334 337 340 339 338 339 340 342 343 342 343 342 341 339 337 336 338 337 336 337 338 339 338 337 336 336 335 333 333 333 332 331 328 326 325 325 324 323 322
311 314 317 320 320 320 321 320 319 319 319 319 319 319 319 321 321 321 322 323 323 324 326 325 324 326 328 328 329 329 328 329 331 333 334 334 331 330 333 334 335 333 329 327 328 329 329 333 336 335 335 336 339 341 342 342 342 342 341 339 337 337 338 337 337 337 338 338 337 337 336 336 335 333 332 332 331 329 327 325 324 324 324 322 321
310 312 316 319 320 321 322 322 321 321 320 319 319 319 320 322 323 323 323 322 322 324 327 326 325 326 327 328 328 328 329 330 330 328 330 333 334 334 336 335 334 333 331 326 324 324 325 326 328 327 330 335 339 341 341 341 341 341 341 339 338 337 337 337 337 337 338 338 337 337 336 334 333 332 331 330 329 328 326 324 323 323 323 321 318
309 310 313 316 318 320 322 323 323 322 322 320 319 320 321 321 322 324 324 324 323 324 325 326 326 326 327 329 329 327 326 326 325 325 326 329 332 334 336 335 333 334 334 329 324 324 324 325 325 325 328 336 340 341 340 340 340 340 340 339 337 336 336 336 336 337 337 338 337 336 335 333 331 330 330 330 329 327 324 322 322 323 321 318 316
308 309 312 314 316 317 320 322 323 323 324 322 321 322 322 320 320 322 323 323 324 325 325 324 324 325 326 327 327 325 324 323 323 323 323 327 331 334 336 336 336 335 335 334 332 331 330 330 331 331 333 337 340 340 339 339 339 338 339 339 337 336 336 336 336 336 337 338 337 337 335 333 331 330 329 329 328 325 322 320 321 322 319 316 315
307 308 310 313 314 316 318 320 321 322 324 324 324 324 324 323 321 322 322 322 324 325 326 326 323 322 324 326 326 326 325 324 324 325 324 327 332 335 336 337 337 337 336 337 338 337 337 337 337 337 338 339 339 338 338 338 337 337 337 336 336 336 337 336 336 336 336 336 336 335 334 332 330 329 328 328 326 323 321 320 320 318 315 315 315
Wind_Speed
20 19 18 21 26 24 25 29 27 26 27 25 24 23 21 21 22 18 15 22 37 43 35 29 33 36 35 31 33 34 31 31 28 25 31 32 28 29 31 31 30 29 29 28 30 33 30 27 27 28 28 28 28 27 25 23 22 23 23 21 20 19 18 18 15 14 16 17 15 14 13 13 11 10 7 5 5 7 9 8 7 8 6 6 7
21 22 21 19 25 26 23 28 30 26 26 26 25 23 20 20 20 15 12 20 35 42 38 33 32 34 35 33 35 37 33 32 30 26 30 32 29 29 29 29 30 31 32 29 28 32 31 28 27 26 25 24 25 24 23 22 22 23 23 20 19 19 17 16 15 15 17 15 10 10 11 11 9 9 8 7 5 5 9 8 5 6 5 6 8
23 24 23 19 22 28 26 26 28 26 25 27 26 23 20 20 20 17 14 19 30 39 41 39 37 36 35 33 36 38 36 34 32 29 30 31 30 30 29 29 31 33 33 30 28 31 32 29 27 25 23 22 22 22 22 22 23 23 21 19 18 18 16 14 14 16 16 11 8 9 10 8 6 7 8 7 5 4 8 9 5 3 4 6 5
23 24 25 23 21 28 31 28 27 26 27 29 29 25 21 21 22 19 17 18 25 35 41 41 40 40 38 37 36 37 37 35 32 30 30 32 32 30 29 30 32 33 32 30 28 29 30 29 27 24 23 22 21 22 23 23 24 22 19 18 18 17 15 14 14 15 14 12 10 8 8 7 6 6 5 5 5 4 6 8 6 5 2 5 4
23 23 26 27 24 24 28 29 28 27 28 30 30 28 23 23 24 21 18 19 22 30 40 43 42 42 40 38 34 32 33 34 31 30 31 34 34 33 31 31 32 32 30 28 28 28 29 29 27 25 24 23 23 23 23 23 23 21 18 18 17 16 14 12 14 15 13 11 11 9 7 6 6 4 4 4 5 5 3 5 7 6 3 5 7
25 25 26 29 29 26 25 26 27 28 29 29 29 28 25 24 25 22 20 21 22 28 39 45 44 43 41 38 36 31 30 33 34 33 32 33 35 35 32 32 32 30 28 27 27 28 30 29 28 26 25 25 24 23 23 23 22 20 19 18 17 16 15 13 14 15 14 12 11 11 10 8 8 7 6 4 3 5 3 3 7 7 4 1 7
27 27 27 28 30 31 29 29 30 31 31 30 28 27 25 25 26 24 22 23 23 27 38 46 46 43 39 38 38 35 33 33 33 32 30 30 34 34 30 30 31 29 27 25 25 27 30 31 29 27 26 25 24 22 22 21 22 20 18 17 16 16 17 17 15 13 13 13 11 10 11 11 11 10 7 5 4 4 4 5 8 8 6 3 3
29 27 28 29 30 31 32 33 33 33 33 31 30 30 27 26 27 26 25 26 24 27 35 44 47 43 37 35 36 36 36 33 29 29 30 28 30 32 30 29 31 30 28 24 23 27 30 31 29 25 25 26 23 22 22 21 21 19 16 16 15 14 16 17 17 14 12 11 10 8 9 10 10 10 8 7 7 6 6 7 7 6 7 7 4
32 30 29 29 31 32 34 34 33 32 32 32 31 32 30 28 28 27 26 27 26 27 31 37 44 45 38 35 35 35 35 33 28 27 30 29 28 31 31 29 31 32 30 25 24 28 32 31 28 24 24 26 25 23 22 21 20 18 18 17 16 16 17 17 16 16 14 12 10 9 9 9 9 8 7 7 7 8 7 6 7 8 8 8 7
31 33 33 32 31 33 34 35 34 32 31 32 31 31 31 30 29 29 28 28 27 27 28 32 40 45 40 37 36 35 34 34 32 27 28 29 29 31 32 30 31 33 32 28 26 29 33 32 29 27 24 24 24 23 22 21 19 19 20 21 20 20 21 19 17 16 16 15 13 11 10 9 8 7 7 8 8 8 8 7 8 9 8 9 9
28 31 34 35 34 33 33 35 36 35 33 32 31 29 30 30 31 31 30 29 27 28 29 31 38 43 42 40 38 36 35 36 36 32 30 30 30 32 33 32 33 33 32 30 29 29 32 33 31 29 26 23 23 23 22 21 20 20 21 22 23 22 21 19 17 16 16 16 15 15 14 12 10 8 7 8 9 8 8 8 8 8 8 10 9
26 27 29 33 36 35 33 34 35 35 34 34 33 31 30 31 32 32 31 30 28 28 29 32 38 44 45 43 40 37 37 38 38 36 35 34 33 34 34 33 34 35 32 32 32 31 30 33 32 29 27 24 24 23 22 21 20 20 22 22 21 21 20 18 17 16 16 16 16 16 15 14 13 12 9 8 9 9 8 7 7 8 8 9 9
24 27 28 29 33 36 35 35 35 34 33 32 33 33 31 31 32 32 32 33 32 30 30 33 38 43 46 46 43 40 40 40 39 38 36 36 36 36 37 36 36 38 35 32 33 32 31 32 32 29 27 25 25 24 22 21 21 20 20 21 20 19 18 18 18 17 16 16 16 16 16 15 14 13 10 9 10 9 7 6 6 7 6 7 8
20 25 28 27 29 34 36 36 35 35 34 32 30 31 32 31 31 32 32 33 35 34 31 31 35 40 46 48 46 43 42 41 40 40 39 38 38 38 39 38 38 38 36 31 31 32 31 31 31 29 28 26 25 25 23 20 19 19 19 19 20 19 17 17 17 16 16 16 16 17 16 15 14 12 11 11 11 9 6 5 5 5 4 5 4
21 24 28 29 29 31 34 37 36 36 37 35 31 29 30 32 31 31 32 33 36 37 33 31 33 37 43 47 46 45 43 41 40 41 41 40 39 39 40 39 38 36 33 31 30 31 31 31 31 30 28 27 27 26 24 21 18 19 19 18 18 17 16 15 14 14 16 16 16 17 16 13 12 11 12 12 11 9 6 6 6 4 3 4 4
23 24 24 26 29 31 33 36 37 36 36 36 35 32 30 31 32 32 32 34 36 37 34 32 32 33 37 45 49 47 44 41 40 41 42 41 40 39 40 40 37 34 32 31 31 31 32 32 32 31 29 29 29 28 25 22 19 19 20 19 18 17 16 15 14 13 14 15 16 17 17 15 14 13 13 12 10 8 6 6 6 4 2 2 3
25 25 25 24 26 31 34 35 36 35 33 33 34 35 34 33 33 33 33 35 36 36 35 33 32 32 35 44 51 50 46 44 42 42 42 42 41 40 40 40 38 35 33 32 31 31 32 33 33 32 30 29 29 29 26 22 20 19 20 20 19 18 16 14 14 13 13 14 15 16 17 16 15 14 13 11 9 8 7 6 6 4 3 1 1
30 27 28 26 22 25 31 32 34 35 32 31 31 32 34 35 35 34 34 36 37 37 36 35 33 33 35 43 50 52 50 47 45 43 43 43 43 42 40 40 38 38 37 34 32 32 33 34 35 31 29 29 29 28 25 23 21 19 20 22 21 18 16 15 15 15 14 13 13 14 16 16 16 15 12 10 10 9 8 7 6 5 4 3 3
34 32 29 26 21 22 29 31 31 32 32 31 31 30 32 35 35 35 35 37 38 38 37 35 34 35 37 41 48 53 52 51 49 46 44 45 45 43 41 39 38 38 39 37 35 34 35 36 35 31 29 30 29 27 26 23 22 20 20 23 23 20 17 17 16 15 15 14 13 13 15 16 16 15 12 10 10 9 8 8 6 5 5 5 4
33 35 33 28 23 24 28 31 30 29 29 31 33 33 33 34 35 34 34 35 37 39 39 37 36 37 38 41 47 53 55 54 53 49 46 45 44 42 38 37 38 39 39 40 39 37 36 36 35 32 30 31 29 28 27 25 22 21 21 24 25 21 18 17 15 14 15 15 15 15 16 16 15 14 12 11 10 10 9 8 7 6 5 5 4
34 34 36 33 25 24 25 27 27 26 27 30 32 33 34 33 34 34 34 36 37 39 39 37 37 39 39 42 47 53 56 55 53 51 48 43 40 39 35 31 34 37 39 40 41 40 38 36 35 34 32 31 30 29 27 26 24 22 22 24 25 23 19 16 15 14 15 16 16 17 16 16 15 14 13 11 11 11 10 10 9 7 6 5 4
34 33 35 35 27 24 25 25 26 27 27 29 29 30 31 32 33 34 35 39 40 40 40 39 38 40 41 42 46 50 54 54 52 51 51 45 38 36 36 31 29 32 37 39 41 42 40 37 36 36 35 33 31 29 28 28 27 25 24 24 25 25 21 17 15 15 16 16 17 18 18 17 16 15 13 12 12 12 11 10 8 4 4 6 5
34 33 32 35 32 26 26 25 27 30 28 27 27 26 28 31 33 34 35 39 42 41 41 42 42 43 44 43 45 46 49 52 52 51 51 49 41 35 34 35 32 30 33 38 41 42 42 40 38 37 36 34 32 30 30 29 29 27 25 24 25 25 22 18 17 17 17 17 17 19 20 18 17 15 14 14 13 12 10 8 6 5 5 6 7
32 31 30 32 33 27 25 23 24 28 27 26 26 23 23 27 32 35 34 35 40 42 43 44 45 45 45 44 44 44 45 47 47 46 47 49 46 39 35 37 36 32 32 36 38 41 42 41 40 38 37 35 33 32 32 31 30 29 27 25 25 25 22 20 19 18 18 19 19 19 20 19 18 16 15 15 14 13 12 9 8 8 7 6 6
29 28 28 29 31 27 24 22 22 27 27 27 27 24 23 24 28 34 34 31 37 44 45 46 45 45 46 45 44 44 43 41 39 38 41 45 45 42 38 36 36 34 35 35 36 38 40 40 40 40 38 36 34 34 33 32 31 29 27 26 25 24 23 22 21 19 19 21 20 20 20 20 20 18 16 16 16 15 13 11 10 9 7 6 7
27 26 27 28 29 27 23 23 25 27 29 28 26 26 26 23 24 31 36 34 37 44 45 46 48 46 46 47 45 44 42 40 38 37 38 43 44 42 39 37 35 35 36 36 35 37 39 40 40 39 38 36 35 34 33 33 32 30 27 25 24 23 22 22 21 20 21 22 22 21 20 19 21 21 18 16 16 16 14 12 11 10 7 7 9
26 25 26 26 27 27 23 24 25 24 26 26 25 25 24 23 22 28 36 38 38 42 42 43 47 47 46 46 44 42 41 41 41 38 37 41 43 41 40 39 37 36 36 37 37 38 38 39 40 39 38 37 35 35 34 33 32 29 26 24 23 22 21 21 21 20 22 22 22 22 21 19 21 22 19 17 18 18 16 13 12 10 9 10 11
25 25 25 24 24 26 25 24 25 23 22 23 23 23 22 23 23 24 32 35 34 38 39 37 39 42 43 43 41 40 42 43 42 39 38 40 40 40 40 39 38 37 36 38 41 41 39 39 40 39 38 37 36 35 34 32 30 28 25 24 24 23 22 22 21 21 22 22 22 23 23 21 21 21 20 18 19 19 16 14 13 11 10 11 11
20 23 23 24 23 23 25 25 25 25 22 22 23 23 22 22 22 21 28 33 32 34 37 34 34 37 39 38 38 40 41 41 41 40 39 40 41 41 42 41 41 39 37 40 44 43 41 40 39 39 37 36 36 36 35 32 30 27 24 23 24 25 25 24 22 22 23 23 22 22 23 23 22 22 21 20 20 19 17 16 15 12 10 11 10
19 21 22 23 23 22 24 24 24 26 25 22 24 25 22 22 21 20 24 30 33 34 37 38 37 37 36 35 36 37 38 39 41 39 37 38 41 43 43 44 44 42 41 43 44 43 41 39 37 38 38 36 37 37 35 33 29 26 24 22 23 26 26 25 24 23 23 23 22 22 23 23 23 23 22 22 22 21 19 19 16 12 11 12 10
23 22 22 22 22 23 25 24 22 26 26 25 25 25 23 23 23 21 21 25 30 34 36 38 38 37 36 36 34 34 35 37 37 36 34 36 37 39 41 43 44 44 44 44 42 40 39 36 35 37 39 38 38 37 33 31 27 25 24 24 25 27 27 26 26 25 24 23 22 23 24 24 23 24 24 24 24 23 21 20 17 14 13 13 12
26 24 24 24 23 23 25 24 22 24 27 27 25 24 23 24 23 20 20 21 24 30 35 36 37 37 36 35 33 32 33 33 34 34 33 32 32 34 37 40 43 43 42 42 41 38 37 36 34 36 39 40 39 35 31 29 28 26 26 26 27 28 28 28 26 25 24 23 22 24 25 25 24 24 25 25 25 24 22 21 19 17 16 16 15
29 27 27 28 26 24 24 25 24 22 26 28 25 23 23 24 22 20 20 19 18 25 31 33 36 37 34 32 31 28 28 31 33 32 31 29 30 33 36 37 39 39 38 41 41 38 38 37 34 35 38 38 36 34 31 29 29 28 28 27 27 28 29 28 26 25 24 23 24 25 26 26 26 25 25 25 25 24 24 22 20 19 18 18 18
31 29 29 28 27 26 27 28 24 20 25 27 25 24 24 23 23 22 22 21 18 20 24 26 30 33 32 31 30 26 24 27 30 29 28 28 29 30 33 35 36 36 36 39 39 38 39 38 34 34 35 34 33 32 31 29 29 29 30 29 27 27 27 26 25 26 25 23 24 26 27 28 27 25 25 25 24 24 24 22 20 19 18 18 20
33 30 28 26 26 27 29 31 24 18 23 27 24 24 24 23 24 23 22 22 22 21 21 21 22 25 28 31 33 31 28 29 30 29 28 28 27 27 29 31 33 34 34 36 37 38 39 37 33 33 33 33 33 32 29 29 28 29 31 32 30 28 26 25 25 26 25 25 25 26 28 28 27 25 25 25 24 24 23 21 19 18 18 18 21
33 27 23 23 26 27 28 31 24 16 21 28 26 25 25 23 23 24 21 20 21 21 21 20 20 21 25 29 32 32 32 32 33 31 30 28 26 26 27 27 30 31 31 33 35 37 38 35 33 33 31 31 32 30 28 28 26 27 31 33 33 31 27 26 26 26 26 25 25 26 28 28 26 25 25 24 23 23 22 20 18 18 19 19 20
26 17 15 19 23 24 26 29 23 16 20 27 26 25 25 24 23 24 22 19 19 20 21 21 22 21 23 26 27 28 29 31 33 35 34 31 27 26 25 25 27 29 27 29 33 36 35 33 32 32 30 29 30 28 27 27 27 28 31 33 35 35 31 27 26 26 26 25 24 27 28 28 26 26 25 23 22 22 21 19 17 17 19 18 18
19 8 7 14 17 18 23 25 18 14 20 25 25 26 26 25 24 24 23 20 19 21 20 20 22 23 23 23 24 25 26 26 28 32 36 35 33 30 28 27 26 26 25 27 31 32 31 29 29 31 30 30 29 27 26 27 28 29 30 31 34 36 34 30 26 23 24 25 26 27 28 27 27 26 25 23 21 21 21 18 15 17 19 17 16
21 10 5 5 9 14 18 17 13 14 20 23 24 25 26 26 25 25 25 22 20 21 20 19 22 22 22 22 23 24 25 23 23 26 30 32 32 32 32 29 26 25 26 29 29 27 25 24 25 27 29 30 30 28 26 27 27 28 28 29 33 36 36 32 27 23 22 23 25 26 27 27 26 25 23 20 18 20 19 15 14 16 17 15 14
26 17 15 10 5 10 10 9 11 16 20 21 23 25 25 26 25 25 26 23 20 20 20 19 20 20 20 22 23 23 24 22 21 23 26 28 30 32 33 30 27 26 27 27 26 24 23 22 22 24 26 28 30 29 27 26 27 27 27 28 32 36 35 32 28 24 21 22 25 26 26 27 26 23 20 16 15 18 18 14 13 16 16 13 11
29 20 18 13 4 3 1 7 14 16 18 21 23 24 25 25 24 25 25 23 20 19 18 19 21 22 22 21 21 22 23 21 20 23 25 28 31 32 33 32 30 29 27 27 26 24 23 22 23 24 26 28 30 29 27 26 26 26 27 28 32 34 33 30 28 25 22 23 27 27 26 27 26 23 20 17 15 17 18 16 15 16 16 12 9
29 22 19 14 8 8 7 9 13 13 15 18 21 23 22 22 23 23 23 23 22 20 18 17 17 21 23 22 23 24 22 18 20 23 26 29 31 33 34 33 32 30 30 30 28 25 25 25 24 25 27 29 30 30 28 27 26 27 28 29 31 33 31 29 28 26 25 26 27 27 27 27 26 24 23 21 18 18 19 18 17 19 18 14 11
28 23 21 16 10 9 7 6 9 11 11 12 17 20 18 18 21 21 22 23 22 19 17 15 15 19 22 23 24 25 21 19 21 23 25 28 30 33 34 33 32 32 33 33 30 27 27 27 26 27 29 30 31 30 28 27 26 27 27 28 30 33 31 28 27 26 26 27 27 26 25 25 25 25 25 24 22 20 19 18 19 21 20 17 15
26 24 21 17 12 8 4 4 7 8 8 9 13 15 14 15 18 19 20 21 21 19 17 15 15 19 22 23 24 24 21 21 22 23 25 26 27 30 33 32 32 33 33 32 30 30 29 28 27 28 29 29 31 30 29 28 27 26 26 27 30 33 32 30 28 26 25 27 27 25 23 22 23 24 25 25 23 21 20 18 20 23 22 19 18
27 24 22 19 14 9 4 2 6 8 8 10 12 14 16 17 18 19 19 18 17 18 17 16 15 19 23 26 26 24 21 21 22 24 26 26 25 27 30 31 31 31 30 29 28 29 29 28 27 27 27 27 30 30 29 29 28 27 26 26 29 33 34 32 31 28 26 26 25 23 21 20 20 21 24 25 24 23 21 19 21 25 24 20 18
29 26 25 21 15 11 10 5 3 4 6 10 12 13 15 17 19 21 21 17 14 14 15 17 17 16 20 25 25 21 20 21 23 24 23 23 23 24 28 32 33 31 29 28 28 28 27 26 26 26 24 25 29 30 30 30 30 29 28 28 30 33 35 35 33 30 27 25 23 21 20 21 19 18 21 25 26 24 21 20 23 27 25 22 19
31 28 27 22 17 14 13 11 8 6 3 7 10 9 10 10 13 17 20 19 16 12 12 17 19 17 16 20 22 19 18 21 24 25 24 23 23 24 28 32 34 31 29 28 28 27 26 25 24 23 23 25 30 33 31 30 31 31 30 31 31 33 35 37 35 32 29 26 23 20 20 21 20 18 20 23 24 22 20 21 26 27 25 22 19
33 29 26 22 20 17 15 13 12 11 7 5 6 4 6 8 8 9 13 17 19 16 12 14 20 19 16 17 20 20 19 19 21 22 24 25 25 26 28 30 29 29 28 28 27 25 24 24 23 21 23 28 33 35 34 33 33 32 32 32 33 33 35 37 37 35 31 28 25 22 22 22 20 19 21 24 24 23 20 22 27 28 25 22 21
36 31 26 23 21 18 15 14 12 11 7 4 4 3 3 7 9 8 9 13 17 19 16 15 19 19 16 17 20 20 19 18 18 19 22 24 24 25 27 27 25 25 27 28 26 22 22 24 24 25 29 35 38 38 36 34 33 32 31 31 32 33 35 37 38 37 34 31 27 25 24 23 20 21 24 27 27 25 22 23 27 28 26 24 23
39 34 29 25 22 19 16 14 12 10 7 5 4 4 4 9 13 12 12 12 11 12 14 16 18 19 18 20 22 21 20 20 19 20 22 24 24 26 27 27 26 24 25 27 25 21 21 26 30 32 36 40 41 39 36 35 33 30 29 30 32 33 35 37 37 36 35 34 31 29 28 27 24 24 27 29 28 26 24 24 26 27 27 25 23
42 38 33 28 25 21 17 15 13 11 8 5 3 4 3 7 11 12 14 15 12 8 10 15 17 18 20 23 24 23 23 22 20 21 23 24 27 29 29 29 29 27 27 28 27 26 27 29 32 34 35 37 37 35 35 35 31 26 26 29 32 34 36 35 35 34 33 32 31 32 31 28 25 25 27 28 27 26 25 25 26 27 28 26 25
Wind_Direction
237 235 235 220 216 219 206 201 205 204 208 216 219 222 221 222 228 234 228 212 208 207 203 194 183 181 185 183 183 186 187 192 196 196 188 189 194 190 193 193 185 188 189 189 190 186 189 196 201 209 214 218 223 226 227 229 228 230 236 241 246 248 250 249 236 235 248 250 256 269 279 291 303 299 286 263 242 245 257 271 280 276 284 295 298
234 236 240 226 210 216 214 201 201 204 206 216 222 221 218 224 229 228 214 207 208 205 201 201 193 187 192 193 190 187 186 190 192 193 186 186 192 190 193 197 191 191 190 192 191 188 193 198 202 210 212 216 221 222 223 224 226 230 234 238 242 246 247 246 234 228 242 253 263 273 278 294 302 284 268 259 250 226 242 262 269 272 307 320 302
223 230 235 232 210 210 213 201 201 208 212 221 228 223 217 223 229 224 213 205 206 203 200 201 199 193 196 197 192 186 187 190 188 190 186 184 189 191 195 199 196 196 194 194 192 190 196 199 201 205 206 211 213 214 214 214 221 228 231 234 236 240 241 241 235 231 238 243 254 262 269 297 299 261 260 264 259 210 226 248 246 250 314 336 311
215 219 225 234 218 205 211 213 212 214 216 223 228 226 216 220 229 224 217 211 206 205 202 202 199 194 195 194 191 187 187 188 187 190 188 183 185 189 196 198 197 200 199 198 196 192 195 197 198 199 200 206 208 210 210 210 220 226 226 229 230 232 233 232 232 238 243 230 228 248 258 277 274 249 267 277 260 233 213 232 228 200 250 326 333
216 213 216 226 227 212 210 214 215 216 219 221 223 225 216 215 227 224 220 218 210 208 205 202 200 196 196 194 190 188 185 185 188 190 188 185 183 188 197 199 197 200 200 200 200 194 191 193 195 196 197 202 205 208 209 211 221 224 223 226 228 228 226 229 235 243 252 236 223 233 245 251 245 244 292 294 250 248 227 229 233 204 189 336 347
221 215 213 218 224 223 216 214 215 216 222 221 218 222 217 212 222 223 223 223 215 211 207 205 201 196 196 195 190 188 187 189 192 192 190 188 186 187 195 198 196 198 201 202 202 197 189 187 192 196 197 201 205 206 208 212 219 222 222 225 228 225 213 215 232 243 250 250 241 239 239 241 246 258 280 287 254 257 263 244 245 229 193 7 354
227 219 215 215 217 221 221 221 222 221 225 224 218 221 216 211 219 221 223 226 219 213 209 207 203 197 197 197 190 188 192 195 192 191 193 190 187 188 193 195 191 194 203 205 204 199 189 186 191 195 197 202 205 206 209 211 216 222 223 224 226 222 215 209 213 232 246 253 255 245 238 242 252 260 262 263 265 265 269 268 260 245 227 220 350
227 223 217 217 216 217 219 222 225 223 224 224 221 221 217 211 216 221 224 227 222 214 211 210 207 204 203 199 192 191 196 199 193 187 191 189 185 187 192 193 189 193 202 203 203 197 189 188 191 196 200 203 205 207 212 214 215 218 216 220 223 219 222 218 210 219 239 252 256 246 239 240 246 252 257 260 260 267 278 286 284 270 270 278 295
220 221 220 220 218 217 218 221 224 222 222 224 222 221 219 212 213 217 221 225 222 215 214 213 210 209 206 199 197 199 200 201 199 190 188 188 185 187 192 193 189 192 198 201 201 194 189 190 190 195 202 205 205 206 211 216 215 209 203 211 221 215 218 225 222 221 226 235 244 249 249 249 251 250 257 268 265 267 274 285 301 308 311 303 297
218 216 218 220 221 220 218 220 223 221 221 223 220 218 218 212 211 214 218 222 221 217 216 215 211 209 205 198 198 203 201 199 202 198 190 190 191 191 193 193 190 193 197 199 200 193 192 193 191 195 202 202 202 203 209 216 215 206 201 205 214 216 220 228 234 232 225 223 225 232 238 242 254 255 253 264 266 269 280 290 302 317 330 319 313
223 216 214 215 220 223 220 219 222 222 222 223 219 215 215 212 210 211 215 219 220 217 216 215 211 209 206 200 198 201 199 197 199 199 195 195 196 194 194 193 192 194 196 196 197 195 196 197 195 198 201 199 198 201 206 214 215 209 207 212 216 222 229 232 236 238 230 224 221 223 227 226 233 240 240 253 259 261 275 290 303 317 326 325 332
228 223 218 214 213 218 220 219 221 222 221 223 219 214 213 212 210 209 212 216 220 219 217 214 210 208 207 202 198 199 197 195 198 199 197 199 198 195 195 195 193 194 195 193 192 195 199 201 199 200 203 201 198 202 206 212 217 216 216 221 224 227 233 232 233 236 232 231 231 230 230 227 226 230 231 244 254 255 261 277 300 310 323 337 340
235 227 224 219 211 212 217 218 219 219 219 220 218 212 210 211 211 209 209 214 220 221 217 213 209 208 207 202 197 198 197 197 200 200 199 200 200 197 197 197 196 196 195 191 191 196 201 202 198 199 204 202 200 203 207 211 218 223 222 222 227 230 233 233 233 234 233 236 238 235 233 231 231 231 230 239 246 250 258 274 294 302 328 351 332
254 236 226 223 215 210 212 216 217 216 218 221 218 210 208 210 211 210 210 212 219 222 218 212 210 209 209 204 197 194 196 199 201 201 202 203 202 201 201 200 201 201 196 193 196 199 202 203 198 199 203 202 201 204 208 214 221 227 227 224 228 232 231 233 235 233 233 236 238 236 233 233 236 233 229 237 241 243 251 266 283 296 337 3 342
262 248 232 223 220 214 211 214 215 216 219 221 220 214 208 209 211 211 210 210 215 220 218 215 214 212 211 208 201 195 196 200 201 202 204 205 205 206 205 204 207 207 200 197 200 201 204 204 201 201 202 200 202 204 207 215 222 227 228 227 228 227 224 227 232 231 229 232 236 236 232 228 229 227 227 233 236 237 238 245 264 293 336 6 28
260 257 246 229 220 217 215 213 213 214 217 220 221 219 213 211 212 212 211 210 214 217 217 216 215 213 211 207 202 198 197 198 200 202 205 205 206 208 208 209 212 212 205 199 200 203 207 207 205 205 203 200 203 206 208 213 220 225 227 225 222 218 218 220 225 228 228 232 238 238 233 226 223 224 227 231 232 234 237 239 252 278 303 1 45
278 265 260 249 230 219 216 212 210 211 214 217 220 221 218 215 214 212 211 212 213 215 216 216 214 212 209 205 203 201 200 200 201 203 206 207 208 209 209 211 214 215 209 202 201 204 208 210 210 207 202 203 205 206 209 213 219 224 223 221 219 214 214 216 222 228 229 234 239 238 234 228 226 228 228 231 233 230 230 236 247 262 267 243 101
305 287 269 260 248 227 215 209 207 208 211 214 217 220 218 216 215 212 211 212 212 213 215 215 213 211 208 206 205 204 203 203 203 203 205 208 210 211 211 210 213 215 212 207 203 205 209 211 211 206 200 204 208 208 210 212 217 223 220 217 217 213 208 209 219 228 230 234 235 231 229 224 223 228 229 230 232 229 227 234 243 251 246 232 213
312 308 289 266 254 240 222 211 208 208 211 218 220 220 218 215 214 213 212 215 212 212 215 214 213 212 209 207 206 204 203 202 201 201 204 208 209 210 211 210 210 212 210 208 205 203 208 212 211 205 199 204 209 210 211 211 216 222 217 213 215 212 206 207 218 226 227 229 227 222 221 220 221 226 230 227 226 227 229 230 237 247 244 245 236
305 309 303 282 266 255 233 212 208 210 215 223 224 221 218 215 215 213 214 217 214 213 214 213 212 213 210 207 205 204 204 203 201 202 205 209 208 205 205 205 206 209 208 207 207 205 208 213 212 205 201 205 209 211 211 211 216 221 216 211 212 210 207 209 214 221 226 225 223 220 218 217 219 224 224 221 219 225 230 231 233 233 235 253 256
297 300 303 296 277 260 242 218 209 212 217 222 222 218 216 215 215 215 215 217 215 211 210 210 213 215 212 208 206 206 207 207 206 206 208 213 212 207 206 204 203 207 209 208 208 208 209 213 211 206 203 206 210 211 211 210 214 218 215 210 209 208 208 210 209 214 226 227 220 219 218 215 215 218 218 215 220 227 231 233 232 223 226 244 237
291 292 297 297 284 260 249 236 219 215 217 219 218 215 214 214 214 215 216 215 212 210 210 211 213 215 213 208 206 207 210 212 213 212 211 213 214 209 209 213 211 210 212 212 210 209 210 212 210 208 207 208 210 213 212 210 211 214 212 209 207 207 209 210 206 208 221 229 222 217 218 215 213 216 215 214 220 226 231 239 243 240 235 236 225
285 288 288 289 288 267 250 246 230 218 215 213 213 213 214 215 215 214 215 214 211 210 211 211 212 214 212 209 206 206 209 213 217 218 215 215 216 211 208 215 220 217 214 214 212 210 211 211 209 209 209 209 210 214 213 211 210 210 211 209 206 207 210 210 207 206 214 228 229 220 217 216 216 217 215 215 220 222 226 235 242 247 244 234 228
281 286 285 284 288 272 250 250 234 214 207 207 210 213 215 216 215 212 211 211 209 209 210 209 211 214 211 208 205 205 207 210 214 219 219 216 217 217 212 213 220 221 218 216 215 212 210 209 209 209 210 210 211 214 213 210 210 211 210 210 208 208 210 209 208 206 208 222 232 228 219 216 219 220 214 213 219 219 218 219 221 232 244 241 231
280 283 285 286 289 273 248 245 235 214 208 210 211 213 218 219 218 215 212 206 200 202 208 210 210 211 209 206 203 204 208 209 209 212 213 211 211 214 214 213 216 220 221 220 216 214 210 207 208 209 209 210 211 212 211 209 209 210 210 211 213 213 212 209 208 206 208 217 227 232 228 219 218 220 215 212 217 220 220 217 217 224 233 244 244
283 282 285 286 289 279 249 235 237 223 211 211 211 210 216 220 222 219 216 208 197 196 203 209 209 207 206 205 203 204 207 208 209 210 210 209 209 213 215 215 215 217 221 221 217 215 211 207 207 209 209 210 209 209 209 208 207 208 209 212 216 215 209 206 207 206 208 215 220 227 232 225 220 222 219 215 216 221 223 216 215 218 213 234 251
285 283 284 283 284 284 262 233 234 229 211 206 206 207 213 218 219 218 218 214 204 197 197 202 205 204 204 205 205 205 206 208 212 214 215 215 213 213 213 212 213 214 217 219 218 216 213 208 206 207 205 205 204 204 206 206 205 208 211 213 213 209 203 204 208 206 206 214 219 222 227 224 222 224 221 218 219 223 223 216 219 220 205 217 239
283 281 281 281 279 283 274 243 231 230 219 207 204 206 211 212 211 215 217 213 207 202 196 192 195 199 202 204 204 205 208 211 212 213 215 216 213 211 209 208 212 213 214 217 218 216 214 208 204 203 201 201 200 200 202 204 205 207 211 213 208 202 202 205 209 208 207 213 218 221 225 224 222 223 222 220 223 226 223 217 222 228 216 215 226
285 280 279 280 277 277 276 258 235 229 226 215 208 208 207 203 202 208 213 210 206 204 200 195 195 197 199 202 203 204 206 207 207 209 211 211 209 208 207 207 210 212 213 215 215 214 211 206 202 199 197 198 198 198 200 203 205 207 210 211 202 198 204 207 210 211 209 212 217 222 228 228 222 222 222 221 224 225 221 220 226 231 226 223 221
298 288 281 280 275 270 274 268 241 226 226 221 212 210 207 201 194 192 198 202 201 198 195 198 202 202 200 202 204 204 204 202 203 204 205 205 204 206 207 206 208 209 209 212 214 213 207 200 198 196 194 195 197 198 201 204 206 209 210 208 199 199 207 210 211 213 211 212 217 222 230 231 224 220 221 221 222 224 224 225 233 236 232 235 231
303 292 282 278 274 266 267 269 247 225 223 223 217 211 208 201 187 180 183 188 192 194 193 196 200 199 198 199 201 202 202 202 203 202 202 202 204 208 210 211 210 208 207 210 214 214 207 200 198 195 192 194 197 198 200 200 202 208 209 205 201 204 210 212 211 214 212 210 214 221 228 232 226 220 221 222 222 225 227 227 234 243 240 240 237
300 292 279 272 272 267 263 265 256 229 217 219 218 210 208 202 187 180 182 183 188 193 194 196 198 197 194 194 196 199 200 202 203 202 203 203 205 210 213 215 217 214 210 211 212 211 208 205 202 197 194 195 196 196 195 195 199 205 208 208 208 208 211 213 212 213 212 208 210 218 225 230 229 222 221 224 224 225 227 228 235 245 243 239 238
295 288 279 268 265 264 256 253 257 237 214 213 214 208 207 203 187 175 175 178 187 193 194 198 200 197 193 192 194 197 198 199 200 199 202 203 204 209 211 214 219 218 214 214 212 209 206 205 204 202 197 194 194 193 194 196 198 200 205 210 212 211 213 214 213 214 214 209 210 218 224 227 229 227 224 225 225 225 227 231 238 245 244 238 234
294 284 276 263 254 254 245 238 247 241 215 209 209 205 205 202 190 177 170 169 179 192 197 201 201 199 197 196 197 199 199 199 198 196 198 202 204 207 210 212 216 216 214 213 211 208 206 205 204 202 196 192 194 195 197 198 198 199 203 206 209 211 213 214 214 216 214 210 212 219 225 227 229 230 229 227 225 225 229 234 240 244 242 234 229
300 288 272 252 241 245 240 228 232 236 216 208 205 203 203 199 189 183 180 177 180 192 200 201 199 200 201 201 201 203 203 201 198 196 198 202 204 206 207 209 212 213 211 210 208 206 207 206 201 197 194 195 197 198 198 199 200 201 203 205 207 210 210 211 214 216 214 211 213 219 226 230 231 231 231 231 227 227 232 237 239 242 242 236 229
312 295 267 242 232 238 234 220 220 229 215 205 203 201 200 197 189 185 185 181 180 190 199 198 196 200 205 206 206 206 207 205 202 198 197 198 199 202 206 208 209 209 209 209 207 207 207 205 198 194 195 200 201 200 200 202 203 204 205 206 208 210 210 209 211 214 215 213 213 217 225 230 232 233 235 234 230 229 233 238 239 245 249 243 233
322 295 256 232 228 232 226 214 217 228 213 202 201 199 196 195 188 182 183 182 180 188 195 193 193 198 204 205 204 204 206 209 208 205 205 206 206 206 208 207 205 203 204 208 210 209 207 202 196 192 194 201 205 204 203 205 207 207 207 207 209 212 214 213 211 212 214 210 208 214 224 229 232 234 238 238 233 229 231 236 239 247 250 242 231
346 320 228 212 220 221 212 209 215 220 207 200 199 196 194 192 186 182 187 190 186 190 194 191 192 196 198 200 200 201 206 213 214 211 213 218 219 215 211 208 204 200 201 209 214 212 206 200 196 194 195 202 207 208 207 207 208 207 206 207 210 213 216 217 214 210 209 208 208 215 224 230 234 236 239 242 236 225 225 231 239 247 247 237 230
8 12 65 144 194 198 199 206 215 210 201 197 195 193 191 190 185 183 188 191 191 193 193 192 194 198 200 202 203 205 212 219 219 215 216 217 215 213 210 207 204 201 204 209 212 211 206 202 201 201 200 204 209 210 209 208 207 207 207 208 209 211 215 218 217 210 208 211 213 218 224 231 235 235 234 239 234 220 219 228 236 244 244 236 232
20 23 35 52 151 191 204 209 200 195 193 192 193 191 189 188 186 183 186 191 198 197 192 195 200 200 200 200 200 207 217 222 219 217 218 215 210 208 207 205 200 200 205 209 207 206 208 209 209 208 206 210 214 213 211 210 208 208 208 208 209 210 212 216 217 211 210 214 214 217 222 227 230 227 224 232 232 216 215 222 228 237 242 235 232
28 31 34 44 93 152 173 182 181 184 189 191 191 189 188 187 183 181 185 190 194 198 201 204 200 194 196 200 203 212 222 224 218 214 215 214 209 205 205 203 199 198 204 208 206 204 207 211 213 212 211 214 218 216 214 213 211 210 210 210 211 211 211 214 215 210 210 216 216 216 219 222 223 221 220 229 228 213 213 221 221 227 237 237 228
29 35 34 34 49 62 79 152 173 178 186 190 189 184 183 182 179 182 190 192 192 201 213 213 201 200 208 211 212 219 226 224 217 212 209 208 206 204 204 202 198 197 201 205 205 205 207 209 213 215 216 218 219 219 217 215 213 213 214 213 212 212 210 212 214 211 211 216 218 216 217 220 221 220 221 227 226 217 218 223 220 219 225 228 228
23 24 19 12 22 49 72 137 163 170 176 178 178 176 173 175 179 186 194 197 195 201 216 218 202 200 208 209 209 217 221 215 212 211 208 205 204 205 204 199 195 197 201 202 203 205 207 211 215 217 218 218 219 220 219 217 215 214 214 214 212 211 210 210 211 212 213 218 219 216 214 216 218 219 220 225 228 227 227 226 218 213 215 218 224
14 16 15 12 20 47 86 140 150 163 173 168 170 176 178 177 175 179 189 198 198 200 212 216 195 188 197 202 204 209 210 206 206 208 210 209 209 209 207 199 196 200 203 204 205 205 206 210 215 219 219 218 219 220 218 218 218 216 215 213 211 212 213 211 208 210 216 219 218 216 213 212 215 219 221 225 229 230 233 230 216 209 211 214 219
11 16 24 25 29 41 55 144 167 172 181 181 182 191 196 192 183 176 179 189 197 204 214 216 205 197 198 197 198 202 207 207 204 202 205 208 209 210 208 204 204 207 207 208 207 206 206 208 213 220 223 225 226 223 218 217 218 217 216 214 213 215 217 214 210 210 215 217 216 216 214 215 220 223 221 223 226 229 235 232 216 209 210 211 215
12 15 21 29 37 37 31 42 139 178 187 187 191 199 203 202 198 191 184 180 187 207 219 216 214 211 199 190 191 197 204 206 204 203 204 205 205 208 208 208 210 212 212 212 209 209 210 210 213 219 224 231 236 230 221 217 217 215 214 214 214 215 216 215 212 210 210 212 214 216 216 217 223 225 220 219 224 228 233 227 213 208 209 209 214
12 11 14 24 35 34 33 40 40 31 76 170 191 204 205 203 199 196 195 191 189 202 216 211 211 219 211 198 195 195 195 196 199 202 206 206 205 205 206 208 211 213 215 215 213 213 213 211 212 216 220 232 240 234 224 218 216 215 215 214 214 214 213 214 213 211 211 213 213 214 214 213 218 222 220 219 222 228 232 222 209 206 208 209 210
15 14 14 18 22 23 28 34 30 32 62 138 183 198 196 203 203 202 209 212 209 211 213 199 199 213 223 213 206 206 205 200 195 198 205 208 207 207 208 213 216 215 216 219 219 220 222 219 217 217 220 229 235 233 227 223 219 218 218 217 215 213 211 212 212 212 212 214 214 213 209 206 211 218 216 214 217 224 230 220 208 206 207 205 202
18 18 18 17 16 16 18 23 26 35 56 113 142 98 135 198 210 218 226 228 225 225 221 200 191 202 217 222 217 216 216 210 202 202 207 210 212 214 216 220 224 221 219 223 223 224 228 226 222 221 222 225 229 233 235 233 227 223 222 222 221 217 213 212 212 213 214 214 212 212 208 206 210 215 212 210 215 221 223 215 208 208 206 201 199
22 23 23 21 19 14 9 12 21 31 44 83 111 80 109 176 196 210 217 222 230 235 233 220 204 199 209 225 228 223 219 216 209 206 209 211 214 217 217 219 222 222 220 222 222 221 223 221 217 217 221 225 230 235 240 240 235 229 226 227 226 221 216 213 212 215 218 217 214 211 209 210 214 214 211 212 215 218 216 208 204 206 204 197 198
24 26 25 24 20 15 9 6 5 8 19 44 68 58 96 170 193 208 216 221 227 234 241 239 223 205 211 227 230 223 220 220 215 213 215 214 215 217 216 215 218 217 215 215 217 217 216 216 215 216 220 227 233 238 241 242 241 236 230 226 224 221 218 216 216 217 217 215 211 208 206 209 214 213 212 214 216 216 212 205 200 199 197 196 202